This is the latest recevied weather packets stored in our database for station/object WA4IKQ. If no packets are shown the sender has not sent any weather packets the latest 10 day(s).
| Time | Temp. | Humidity | Pressure | Rain* | Wind** | Luminosity | Snow |
|---|---|---|---|---|---|---|---|
| 1777807600 | 18.33° C | 90% | 1015.9 hPa | 0 mm | 0 m/s | - | - |
| 1777806447 | 18.33° C | 90% | 1015.8 hPa | 0 mm | 2.24 m/s, 311° | - | - |
| 1777805668 | 18.33° C | 90% | 1015.6 hPa | 0 mm | 2.24 m/s, 318° | - | - |
| 1777805267 | 18.33° C | 90% | 1015.7 hPa | 0 mm | 2.24 m/s, 332° | - | - |
| 1777804061 | 18.33° C | 90% | 1015.4 hPa | 0 mm | 1.79 m/s, 307° | - | - |
| 1777803866 | 18.33° C | 90% | 1015.4 hPa | 0 mm | 1.79 m/s, 307° | - | - |
| 1777803776 | 18.33° C | 90% | 1015.3 hPa | 0 mm | 0.45 m/s, 329° | - | - |
| 1777803152 | 18.33° C | 90% | 1015.1 hPa | 0 mm | 2.68 m/s, 309° | - | - |
| 1777802062 | 18.33° C | 90% | 1015 hPa | 0 mm | 2.24 m/s, 290° | - | - |
| 1777801161 | 18.33° C | 91% | 1015.1 hPa | 0 mm | 1.34 m/s, 60° | - | - |
| 1777801119 | 18.33° C | 91% | 1015.2 hPa | 0 mm | 1.79 m/s, 312° | - | - |
| 1777800863 | 18.33° C | 91% | 1015.2 hPa | 0 mm | 1.79 m/s, 312° | - | - |
| 1777800797 | 18.33° C | 91% | 1015.1 hPa | 0 mm | 1.79 m/s, 11° | - | - |
| 1777800563 | 18.33° C | 91% | 1015.1 hPa | 0 mm | 1.79 m/s, 11° | - | - |
| 1777800155 | 18.33° C | 91% | 1015.1 hPa | 0 mm | 0 m/s | - | - |
| 1777799963 | 18.33° C | 91% | 1015.1 hPa | 0 mm | 0 m/s | - | - |
| 1777799953 | 18.33° C | 91% | 1015 hPa | 0 mm | 1.34 m/s, 319° | - | - |
| 1777799899 | 18.33° C | 91% | 1015 hPa | 0 mm | 1.34 m/s, 319° | - | - |
| 1777799659 | 18.33° C | 91% | 1015 hPa | 0 mm | 1.34 m/s, 319° | - | - |
| 1777799622 | 18.33° C | 92% | 1015.1 hPa | 0 mm | 0.89 m/s, 276° | - | - |
| 1777799361 | 18.33° C | 92% | 1015.1 hPa | 0 mm | 0.89 m/s, 276° | - | - |
| 1777798761 | 18.33° C | 92% | 1015 hPa | 0 mm | 1.79 m/s, 297° | - | - |
| 1777797562 | 18.33° C | 92% | 1014.8 hPa | 0 mm | 1.34 m/s, 18° | - | - |
| 1777797500 | 18.33° C | 92% | 1014.6 hPa | 0 mm | 0.89 m/s, 312° | - | - |
| 1777797259 | 18.33° C | 92% | 1014.6 hPa | 0 mm | 0.89 m/s, 312° | - | - |
* Rain latest hour (hover to see other rain measurements)
** Current wind speed in m/s (hover to see current wind gust speed)